KD7RF Weather Reports


time (UTC)temp
F
wind
direction
speed
knots
gust
knots
rain 1hr
in
rain 24hr
in
rain mn
in
humidity
%
barometer
mb
20211017160058 61 40 2.6 7.0 0.00 0.00 0.00 56 1025.4
20211017155532 61 201 0.9 7.0 0.00 0.00 0.00 60 1025.4
20211017155033 60 102 1.7 7.8 0.00 0.00 0.00 56 1025.5
20211017154530 60 194 2.6 7.8 0.00 0.00 0.00 57 1025.4
20211017154025 60 131 2.6 5.2 0.00 0.00 0.00 57 1025.4
20211017153528 60 9 1.7 7.8 0.00 0.00 0.00 61 1025.4
20211017153033 59 85 0.9 6.1 0.00 0.00 0.00 66 1025.4
20211017152528 59 5 1.7 4.3 0.00 0.00 0.00 65 1025.4
20211017152019 58 88 0.9 4.3 0.00 0.00 0.00 69 1025.3
20211017151550 58 238 0.9 4.3 0.00 0.00 0.00 70 1025.3
20211017151023 57 23 0.9 4.3 0.00 0.00 0.00 71 1025.4
20211017150515 56 64 0.9 4.3 0.00 0.00 0.00 75 1025.3
20211017150054 56 5 0.9 3.5 0.00 0.00 0.00 75 1025.3
20211017145513 56 82 0.0 5.2 0.00 0.00 0.00 75 1025.3
20211017145012 55 264 1.7 5.2 0.00 0.00 0.00 75 1025.3
20211017144531 55 250 0.9 4.3 0.00 0.00 0.00 76 1025.2
20211017144012 55 99 1.7 3.5 0.00 0.00 0.00 79 1025.3
20211017143509 54 192 0.0 2.6 0.00 0.00 0.00 81 1025.3
20211017143009 54 114 0.0 3.5 0.00 0.00 0.00 82 1025.4
20211017142506 54 269 0.9 3.5 0.00 0.00 0.00 79 1025.4
20211017142006 53 318 0.0 2.6 0.00 0.00 0.00 80 1025.3
20211017141509 53 182 0.0 3.5 0.00 0.00 0.00 83 1025.4
20211017141003 52 30 0.9 3.5 0.00 0.00 0.00 82 1025.2
20211017140501 52 168 0.9 3.5 0.00 0.00 0.00 85 1025.2
20211017140121 51 265 0.0 2.6 0.00 0.00 0.00 85 1025.1
20211017135601 51 219 0.0 1.7 0.00 0.00 0.00 85 1025.2
20211017135058 50 26 0.0 1.7 0.00 0.00 0.00 88 1025.1
20211017134655 50 43 0.0 1.7 0.00 0.00 0.00 89 1025.1
20211017134054 49 300 0.0 2.6 0.00 0.00 0.00 90 1025.1
20211017133555 48 235 0.9 2.6 0.00 0.00 0.00 90 1025.1
20211017133156 48 65 0.0 3.5 0.00 0.00 0.00 91 1025.1
20211017132600 47 81 0.9 3.5 0.00 0.00 0.00 93 1025.1
20211017132049 47 180 0.0 2.6 0.00 0.00 0.00 94 1025.1
20211017131645 46 180 0.0 2.6 0.00 0.00 0.00 95 1025.2
20211017131046 46 180 0.0 2.6 0.00 0.00 0.00 96 1025.1
20211017130547 45 180 0.0 1.7 0.00 0.00 0.00 97 1025.0
20211017130057 44 242 0.0 0.9 0.00 0.00 0.00 97 1024.9
20211017125542 44 242 0.0 0.9 0.00 0.00 0.00 98 1025.0
20211017125051 43 264 0.0 0.9 0.00 0.00 0.00 98 1025.0
20211017124543 43 264 0.0 0.9 0.00 0.00 0.00 98 1025.0
20211017124041 43 264 0.0 0.9 0.00 0.00 0.00 98 1024.9
20211017123602 42 264 0.0 0.0 0.00 0.00 0.00 98 1024.8
20211017123157 42 264 0.0 0.0 0.00 0.00 0.00 97 1024.8
20211017122546 41 264 0.0 0.0 0.00 0.00 0.00 97 1024.9
20211017122039 41 264 0.0 0.0 0.00 0.00 0.00 97 1024.8
20211017121616 41 264 0.0 0.0 0.00 0.00 0.00 97 1024.8
20211017121037 41 264 0.0 0.0 0.00 0.00 0.00 97 1024.8
20211017120541 41 264 0.0 0.0 0.00 0.00 0.00 97 1024.7
20211017120100 41 264 0.0 0.0 0.00 0.00 0.00 97 1024.7
20211017115536 41 264 0.0 0.9 0.00 0.00 0.00 97 1024.6
20211017115034 41 264 0.0 0.9 0.00 0.00 0.00 97 1024.5
20211017114558 41 264 0.0 0.9 0.00 0.00 0.00 97 1024.5
20211017114035 41 264 0.0 0.9 0.00 0.00 0.00 97 1024.5
20211017113534 41 264 0.0 0.0 0.00 0.00 0.00 97 1024.4
20211017113112 41 264 0.0 0.9 0.00 0.00 0.00 97 1024.3
20211017112534 41 264 0.0 0.9 0.00 0.00 0.00 97 1024.3
20211017112031 41 264 0.0 0.9 0.00 0.00 0.00 97 1024.2
20211017111540 41 264 0.0 0.9 0.00 0.00 0.00 97 1024.2
20211017111031 41 264 0.0 0.0 0.00 0.00 0.00 97 1024.2
20211017110532 41 264 0.0 0.0 0.00 0.00 0.00 97 1024.1
20211017110105 41 264 0.0 0.9 0.00 0.00 0.00 97 1024.2
20211017105536 41 264 0.0 0.9 0.00 0.00 0.00 97 1024.1
20211017105030 41 264 0.0 0.0 0.00 0.00 0.00 97 1024.2
20211017104536 41 264 0.0 0.0 0.00 0.00 0.00 97 1024.2
20211017104029 41 264 0.0 0.0 0.00 0.00 0.00 97 1024.1
20211017103538 41 264 0.0 0.0 0.00 0.00 0.00 97 1024.1
20211017103054 40 264 0.0 0.0 0.00 0.00 0.00 97 1024.1
20211017102528 40 264 0.0 0.0 0.00 0.00 0.00 97 1024.1
20211017102045 40 264 0.0 0.0 0.00 0.00 0.00 97 1023.9
20211017101543 40 264 0.0 0.0 0.00 0.00 0.00 97 1024.0
20211017101027 40 264 0.0 0.0 0.00 0.00 0.00 97 1024.0
20211017100529 40 264 0.0 0.0 0.00 0.00 0.00 97 1023.9
20211017100100 41 264 0.0 0.0 0.00 0.00 0.00 97 1023.9
20211017095530 41 264 0.0 0.0 0.00 0.00 0.00 97 1024.0
20211017095025 41 264 0.0 0.0 0.00 0.00 0.00 97 1023.9
20211017094536 41 264 0.0 0.0 0.00 0.00 0.00 97 1023.9
20211017094023 41 264 0.0 0.0 0.00 0.00 0.00 96 1023.9
20211017093522 41 264 0.0 0.0 0.00 0.00 0.00 96 1023.9
20211017093022 41 264 0.0 0.0 0.00 0.00 0.00 96 1023.8
20211017092520 41 264 0.0 0.0 0.00 0.00 0.00 97 1023.8
20211017092026 41 264 0.0 0.0 0.00 0.00 0.00 97 1023.8
20211017091527 42 264 0.0 0.0 0.00 0.00 0.00 97 1023.7
20211017091021 42 264 0.0 0.9 0.00 0.00 0.00 97 1023.6
20211017090520 42 264 0.0 0.0 0.00 0.00 0.00 97 1023.7
20211017090025 42 264 0.0 0.0 0.00 0.00 0.00 97 1023.6
20211017085526 41 264 0.0 0.0 0.00 0.02 0.00 97 1023.6
20211017085019 41 264 0.0 0.0 0.00 0.02 0.00 97 1023.6
20211017084624 42 264 0.0 0.0 0.00 0.02 0.00 96 1023.6
20211017084017 42 264 0.0 0.0 0.00 0.02 0.00 96 1023.6
20211017083529 42 264 0.0 0.0 0.00 0.02 0.00 96 1023.5
20211017083024 42 264 0.0 0.0 0.00 0.02 0.00 96 1023.5
20211017082516 42 264 0.0 0.0 0.00 0.02 0.00 96 1023.6
20211017082016 42 264 0.0 0.0 0.00 0.02 0.00 96 1023.5
20211017081532 42 264 0.0 0.0 0.00 0.02 0.00 96 1023.5
20211017081031 42 264 0.0 0.0 0.00 0.02 0.00 96 1023.6
20211017080514 42 264 0.0 0.0 0.00 0.02 0.00 96 1023.5
20211017080027 42 264 0.0 0.0 0.00 0.02 0.00 97 1023.5
20211017075512 42 264 0.0 0.0 0.00 0.02 0.00 96 1023.4
20211017075016 43 264 0.0 0.0 0.00 0.02 0.00 96 1023.4
20211017074514 43 264 0.0 0.0 0.00 0.02 0.00 96 1023.3
20211017074020 43 264 0.0 0.0 0.00 0.02 0.00 96 1023.3
20211017073510 43 264 0.0 0.0 0.00 0.02 0.00 96 1023.5
20211017073022 43 264 0.0 0.9 0.00 0.02 0.00 96 1023.4
20211017072510 43 264 0.0 0.9 0.00 0.02 0.00 96 1023.5
20211017072009 43 264 0.0 0.9 0.00 0.02 0.00 96 1023.5
20211017071509 43 264 0.0 0.9 0.00 0.02 0.00 96 1023.4
20211017071021 43 264 0.0 0.9 0.00 0.02 0.00 96 1023.4
20211017070507 43 264 0.0 0.9 0.00 0.02 0.00 96 1023.4
20211017070032 43 264 0.0 0.9 0.00 0.02 0.00 96 1023.4
20211017065506 43 264 0.0 1.7 0.00 0.02 0.00 96 1023.2
20211017065006 43 264 0.9 1.7 0.00 0.02 0.00 96 1023.3
20211017064525 43 264 0.0 1.7 0.00 0.02 0.00 96 1023.2
20211017064003 43 264 0.0 0.9 0.00 0.02 0.00 96 1023.1
20211017063508 43 264 0.0 0.9 0.00 0.02 0.00 96 1023.2
20211017063003 43 264 0.0 0.0 0.00 0.02 0.00 96 1023.2
20211017062502 43 264 0.0 0.9 0.00 0.02 0.00 96 1023.2
20211017062004 44 264 0.0 0.9 0.00 0.02 0.00 96 1023.2
20211017061500 44 264 0.0 0.9 0.00 0.02 0.00 96 1023.1
20211017061001 44 264 0.0 0.9 0.00 0.02 0.00 96 1023.0
20211017060611 44 264 0.0 0.9 0.00 0.02 0.00 96 1023.0
20211017060115 43 264 0.0 0.9 0.00 0.02 0.00 96 1023.1
20211017055614 43 264 0.0 0.9 0.00 0.41 0.00 96 1022.9
20211017055123 44 264 0.0 0.0 0.00 0.41 0.00 95 1023.0
20211017054711 44 264 0.0 0.0 0.00 0.41 0.00 95 1023.0
20211017054057 44 264 0.0 0.0 0.00 0.41 0.00 95 1022.8
20211017053608 44 264 0.0 0.0 0.00 0.41 0.00 95 1022.9
20211017053154 44 264 0.0 0.0 0.00 0.41 0.00 95 1022.9
20211017052557 44 264 0.0 0.0 0.00 0.41 0.00 96 1022.8
20211017052056 44 264 0.0 0.0 0.00 0.41 0.00 95 1022.8
20211017051646 44 264 0.0 0.0 0.00 0.41 0.00 95 1022.8
20211017051109 44 264 0.0 0.0 0.00 0.41 0.00 95 1022.8
20211017050554 44 264 0.0 0.0 0.00 0.41 0.00 95 1022.8
20211017050220 44 264 0.0 0.0 0.00 0.41 0.00 95 1022.9
20211017045605 45 264 0.0 0.0 0.00 0.54 0.41 95 1022.8
20211017045053 45 264 0.0 0.0 0.00 0.54 0.41 95 1022.8
20211017044626 45 264 0.0 0.0 0.00 0.54 0.41 95 1022.8
20211017044107 45 264 0.0 0.0 0.00 0.54 0.41 95 1022.8
20211017043555 45 264 0.0 0.0 0.00 0.54 0.41 95 1022.8
20211017043109 45 264 0.0 0.0 0.00 0.54 0.41 95 1022.8
20211017042554 45 264 0.0 0.0 0.00 0.54 0.41 95 1022.9
20211017042049 45 264 0.0 0.0 0.00 0.54 0.41 95 1022.9
20211017041637 45 264 0.0 0.0 0.00 0.54 0.41 95 1023.0
20211017041056 45 264 0.0 0.0 0.00 0.54 0.41 94 1022.9
20211017040549 45 264 0.0 0.0 0.00 0.54 0.41 94 1023.0
20211017040149 45 264 0.0 0.0 0.00 0.54 0.41 94 1022.8
20211017035548 45 264 0.0 0.0 0.00 0.54 0.41 94 1022.8
20211017035114 45 264 0.0 0.0 0.00 0.54 0.41 94 1022.7
20211017034641 45 264 0.0 0.0 0.00 0.54 0.41 94 1022.6
20211017034047 45 264 0.0 0.0 0.00 0.54 0.41 93 1022.7
20211017033552 46 264 0.0 0.0 0.00 0.54 0.41 93 1022.7
20211017033118 46 264 0.0 0.0 0.00 0.54 0.41 93 1022.7
20211017032545 46 264 0.0 0.0 0.00 0.54 0.41 93 1022.8
20211017032045 46 264 0.0 0.0 0.00 0.54 0.41 92 1022.7
20211017031608 46 264 0.0 0.0 0.00 0.54 0.41 92 1022.7
20211017031042 47 264 0.0 0.0 0.00 0.54 0.41 92 1022.6
20211017030541 47 264 0.0 0.0 0.00 0.54 0.41 92 1022.6
20211017030057 47 264 0.0 0.0 0.00 0.54 0.41 92 1022.6
20211017025539 47 264 0.0 0.0 0.00 0.80 0.41 91 1022.5
20211017025040 48 264 0.0 0.0 0.00 0.80 0.41 91 1022.5
20211017024559 48 264 0.0 0.0 0.00 0.80 0.41 91 1022.4
20211017024039 48 264 0.0 0.0 0.00 0.80 0.41 91 1022.3
20211017023535 48 264 0.0 0.9 0.00 0.80 0.41 90 1022.3
20211017023110 48 264 0.0 1.7 0.00 0.80 0.41 90 1022.3
20211017022542 48 264 0.0 1.7 0.00 0.80 0.41 90 1022.3
20211017022036 48 264 0.0 0.0 0.00 0.80 0.41 88 1022.2
20211017021606 48 264 0.0 0.0 0.00 0.80 0.41 87 1022.1
20211017021034 48 264 0.0 0.0 0.00 0.80 0.41 86 1022.2
20211017020535 49 264 0.0 0.0 0.00 0.80 0.41 87 1022.2
20211017020049 49 264 0.0 0.0 0.00 0.80 0.41 86 1022.3
20211017015537 49 264 0.0 0.0 0.00 1.26 0.41 84 1022.2
20211017015033 49 264 0.0 0.0 0.00 1.26 0.41 85 1022.2
20211017014610 49 264 0.0 0.0 0.00 1.26 0.41 85 1022.3
20211017014031 49 264 0.0 0.0 0.00 1.26 0.41 85 1022.0
20211017013529 49 264 0.0 0.0 0.00 1.26 0.41 84 1021.9
20211017013056 49 264 0.0 0.0 0.00 1.26 0.41 83 1022.0
20211017012529 49 264 0.0 0.0 0.00 1.26 0.41 82 1021.9
20211017012032 50 264 0.0 0.0 0.00 1.26 0.41 80 1021.9
20211017011608 50 264 0.0 0.0 0.00 1.26 0.41 80 1021.9
20211017011033 50 264 0.0 0.0 0.00 1.26 0.41 80 1021.8
20211017010525 51 264 0.0 0.0 0.00 1.26 0.41 79 1021.8
20211017010107 51 264 0.0 0.0 0.00 1.26 0.41 79 1021.7
20211017005524 51 264 0.0 0.0 0.00 1.57 0.41 78 1021.7
20211017005022 51 264 0.0 0.0 0.00 1.57 0.41 78 1021.6
20211017004527 52 264 0.0 0.0 0.00 1.57 0.41 78 1021.6
20211017004037 52 264 0.0 0.0 0.00 1.57 0.41 77 1021.5
20211017003519 52 264 0.0 0.0 0.00 1.57 0.41 77 1021.5
20211017003048 52 264 0.0 0.0 0.00 1.57 0.41 76 1021.5
20211017002518 52 264 0.0 0.0 0.00 1.57 0.41 74 1021.5
20211017002017 53 264 0.0 0.0 0.00 1.57 0.41 74 1021.5
20211017001525 53 264 0.0 0.0 0.00 1.57 0.41 71 1021.4
20211017001016 53 264 0.0 0.0 0.00 1.57 0.41 71 1021.4
20211017000516 54 264 0.0 0.0 0.00 1.57 0.41 70 1021.4
20211017000018 54 264 0.0 0.0 0.00 1.57 0.41 69 1021.3
20211016235515 54 264 0.0 0.0 0.00 1.57 0.41 68 1021.2
20211016235019 55 264 0.0 0.0 0.00 1.57 0.41 68 1021.2
20211016234515 55 264 0.0 0.9 0.00 1.57 0.41 67 1021.1
20211016234017 56 264 0.0 0.9 0.00 1.57 0.41 67 1021.0
20211016233516 56 264 0.0 0.9 0.00 1.57 0.41 66 1021.0
20211016233027 56 264 0.0 0.9 0.00 1.57 0.41 64 1020.9
20211016232514 57 264 0.0 0.0 0.00 1.57 0.41 63 1020.9
20211016232013 57 264 0.0 0.9 0.00 1.57 0.41 63 1020.8
20211016231513 58 264 0.0 0.9 0.00 1.57 0.41 60 1020.8
20211016231026 58 264 0.0 0.9 0.00 1.57 0.41 58 1020.8
20211016230517 59 264 0.0 0.9 0.00 1.57 0.41 57 1020.8
20211016230019 59 264 0.0 0.9 0.00 1.57 0.41 57 1020.8
20211016225515 60 264 0.0 1.7 0.00 1.57 0.41 56 1020.7
20211016225012 60 264 0.0 1.7 0.00 1.57 0.41 54 1020.7
20211016224516 61 264 0.0 2.6 0.00 1.57 0.41 55 1020.6
20211016224012 61 264 0.9 3.5 0.00 1.57 0.41 53 1020.7
20211016223512 62 139 0.9 3.5 0.00 1.57 0.41 51 1020.6
20211016223013 62 91 0.9 6.1 0.00 1.57 0.41 50 1020.6
20211016222510 63 127 0.9 6.1 0.00 1.57 0.41 48 1020.6
20211016222011 64 44 0.9 3.5 0.00 1.57 0.41 48 1020.6
20211016221513 64 53 0.9 4.3 0.00 1.57 0.41 46 1020.5
20211016221010 64 342 0.9 7.0 0.00 1.57 0.41 45 1020.6
20211016220512 64 288 0.9 7.0 0.00 1.57 0.41 47 1020.6
20211016220016 64 254 0.0 3.5 0.00 1.57 0.41 49 1020.5
20211016215513 64 79 0.9 6.1 0.00 1.57 0.41 48 1020.5
20211016215009 65 157 0.9 6.1 0.00 1.57 0.41 46 1020.5
20211016214523 65 260 0.9 6.1 0.00 1.57 0.41 46 1020.4
20211016214010 65 65 0.9 3.5 0.00 1.57 0.41 48 1020.3
20211016213510 65 54 0.9 5.2 0.00 1.57 0.41 46 1020.3
20211016213025 65 292 0.9 4.3 0.00 1.57 0.41 47 1020.3
20211016212511 65 159 0.9 7.8 0.00 1.57 0.41 43 1020.3
20211016212009 65 182 1.7 7.8 0.00 1.57 0.41 42 1020.3
20211016211511 65 280 0.9 8.7 0.00 1.57 0.41 43 1020.1
20211016211008 65 319 2.6 7.0 0.00 1.57 0.41 41 1020.0
20211016210508 65 319 2.6 8.7 0.00 1.57 0.41 43 1020.1
20211016210035 65 235 1.7 11.3 0.00 1.57 0.41 41 1020.0
20211016205508 66 251 2.6 11.3 0.00 1.57 0.41 43 1020.0
20211016205007 66 12 1.7 4.3 0.00 1.57 0.41 43 1020.0
20211016204510 66 338 0.9 5.2 0.00 1.57 0.41 44 1020.1
20211016204007 66 262 2.6 6.1 0.00 1.57 0.41 43 1020.2
20211016203507 66 83 2.6 6.1 0.00 1.57 0.41 43 1020.1
20211016203026 66 146 0.9 3.5 0.00 1.57 0.41 46 1020.1
20211016202506 66 318 0.9 10.4 0.00 1.57 0.41 45 1020.0
20211016202007 66 299 2.6 7.8 0.00 1.57 0.41 42 1020.0
20211016201511 66 327 1.7 7.0 0.00 1.57 0.41 45 1020.1
20211016201005 65 261 1.7 7.0 0.00 1.57 0.41 43 1020.1
20211016200505 65 241 0.9 7.0 0.00 1.57 0.41 43 1020.1
20211016200016 66 270 3.5 7.0 0.00 1.57 0.41 41 1019.9
20211016195504 66 335 2.6 7.0 0.00 1.57 0.41 41 1020.0
20211016195005 66 24 1.7 6.1 0.00 1.57 0.41 41 1019.8
20211016194514 66 98 1.7 6.1 0.00 1.57 0.41 45 1019.8
20211016194009 65 338 2.6 7.8 0.00 1.57 0.41 42 1019.9
20211016193503 66 33 2.6 7.8 0.00 1.57 0.41 43 1019.8
20211016192504 65 13 2.6 7.8 0.00 1.57 0.41 43 1019.7
20211016192002 65 42 2.6 7.8 0.00 1.57 0.41 45 1019.7
20211016191504 65 5 1.7 8.7 0.00 1.57 0.41 43 1019.8
20211016191001 65 332 1.7 10.4 0.00 1.57 0.41 43 1019.9
20211016190501 65 305 2.6 10.4 0.00 1.57 0.41 44 1020.0
20211016190017 65 329 2.6 8.7 0.00 1.57 0.41 45 1020.0
20211016185501 65 330 3.5 9.6 0.00 1.57 0.41 42 1020.0
20211016185101 65 74 2.6 9.6 0.00 1.57 0.41 44 1020.1
20211016184059 65 343 1.7 7.0 0.00 1.57 0.41 46 1020.2
20211016183559 65 84 2.6 10.4 0.00 1.57 0.41 48 1020.3
20211016183151 65 300 4.3 10.4 0.00 1.57 0.41 45 1020.3
20211016182559 65 61 3.5 10.4 0.00 1.57 0.41 48 1020.3
20211016182104 65 247 1.7 9.6 0.00 1.57 0.41 46 1020.3
20211016181729 65 329 1.7 9.6 0.00 1.57 0.41 52 1020.3
20211016181124 64 304 3.5 9.6 0.00 1.57 0.41 45 1020.3
20211016180601 64 236 2.6 7.8 0.00 1.57 0.41 49 1020.2
20211016180200 64 279 2.6 7.8 0.00 1.57 0.41 46 1020.3
20211016175559 64 179 1.7 7.8 0.00 1.57 0.41 48 1020.3
20211016175057 64 47 1.7 7.0 0.00 1.57 0.41 50 1020.4
20211016174620 64 160 2.6 7.8 0.00 1.57 0.41 51 1020.4
20211016174114 64 321 2.6 7.0 0.00 1.57 0.41 48 1020.6
20211016173554 64 279 2.6 7.8 0.00 1.57 0.41 47 1020.6
20211016173146 63 113 2.6 8.7 0.00 1.57 0.41 49 1020.7
20211016172555 63 49 2.6 8.7 0.00 1.57 0.41 52 1020.8
20211016172056 64 333 2.6 4.3 0.00 1.57 0.41 50 1020.9
20211016171636 63 229 1.7 10.4 0.00 1.57 0.41 54 1021.0
20211016171055 63 298 2.6 10.4 0.00 1.57 0.41 52 1021.0
20211016170554 63 38 1.7 7.8 0.00 1.57 0.41 53 1021.0
20211016170131 63 295 1.7 10.4 0.00 1.57 0.41 52 1021.0
20211016165600 63 355 3.5 10.4 0.00 1.57 0.41 54 1021.1
20211016165053 62 340 1.7 10.4 0.00 1.57 0.41 53 1021.0
20211016164638 62 348 2.6 10.4 0.00 1.57 0.41 52 1020.9
20211016164105 62 288 1.7 7.8 0.00 1.57 0.41 55 1020.9
20211016163552 62 123 1.7 12.2 0.00 1.57 0.41 55 1021.1
20211016163109 61 136 2.6 12.2 0.00 1.57 0.41 54 1021.1
20211016162620 61 343 2.6 11.3 0.00 1.57 0.41 51 1021.0
20211016162050 62 324 3.5 8.7 0.00 1.57 0.41 56 1021.0
20211016161640 62 181 1.7 5.2 0.00 1.57 0.41 63 1021.0
20211016161050 61 273 1.7 7.0 0.00 1.57 0.41 57 1021.1
20211016160550 61 14 1.7 11.3 0.00 1.57 0.41 60 1021.0
20211016160139 61 44 3.5 11.3 0.00 1.57 0.41 59 1020.9